Year,Month,Day,Hour,Minute,Value (Times are PST for temperature in C)
2012,09,21,00,00,10.20
2012,09,21,00,01,10.20
2012,09,21,00,02,10.20
2012,09,21,00,03,10.20
2012,09,21,00,04,10.20
2012,09,21,00,05,10.20
2012,09,21,00,06,10.20
2012,09,21,00,07,10.10
2012,09,21,00,08,10.10
2012,09,21,00,09,10.10
2012,09,21,00,10,10.00
2012,09,21,00,11,10.00
2012,09,21,00,12,10.00
2012,09,21,00,13,9.90
2012,09,21,00,14,9.90
2012,09,21,00,15,9.90
2012,09,21,00,16,9.90
2012,09,21,00,17,9.80
2012,09,21,00,18,9.80
2012,09,21,00,19,9.80
2012,09,21,00,20,9.80
2012,09,21,00,21,9.70
2012,09,21,00,22,9.70
2012,09,21,00,23,9.70
2012,09,21,00,24,9.70
2012,09,21,00,25,9.70
2012,09,21,00,26,9.70
2012,09,21,00,27,9.60
2012,09,21,00,28,9.60
2012,09,21,00,29,9.60
2012,09,21,00,30,9.60
2012,09,21,00,31,9.60
2012,09,21,00,32,9.60
2012,09,21,00,33,9.60
2012,09,21,00,34,9.60
2012,09,21,00,35,9.60
2012,09,21,00,36,9.60
2012,09,21,00,37,9.50
2012,09,21,00,38,9.50
2012,09,21,00,39,9.50
2012,09,21,00,40,9.50
2012,09,21,00,41,9.50
2012,09,21,00,42,9.50
2012,09,21,00,43,9.50
2012,09,21,00,44,9.50
2012,09,21,00,45,9.50
2012,09,21,00,46,9.50
2012,09,21,00,47,9.50
2012,09,21,00,48,9.50
2012,09,21,00,49,9.40
2012,09,21,00,50,9.40
2012,09,21,00,51,9.40
2012,09,21,00,52,9.40
2012,09,21,00,53,9.40
2012,09,21,00,54,9.40
2012,09,21,00,55,9.40
2012,09,21,00,56,9.40
2012,09,21,00,57,9.30
2012,09,21,00,58,9.30
2012,09,21,00,59,9.30
2012,09,21,01,00,9.30
2012,09,21,01,01,9.30
2012,09,21,01,02,9.20
2012,09,21,01,03,9.20
2012,09,21,01,04,9.20
2012,09,21,01,05,9.20
2012,09,21,01,06,9.20
2012,09,21,01,07,9.20
2012,09,21,01,08,9.20
2012,09,21,01,09,9.20
2012,09,21,01,10,9.10
2012,09,21,01,11,9.10
2012,09,21,01,12,9.10
2012,09,21,01,13,9.10
2012,09,21,01,14,9.10
2012,09,21,01,15,9.20
2012,09,21,01,16,9.20
2012,09,21,01,17,9.20
2012,09,21,01,18,9.20
2012,09,21,01,19,9.20
2012,09,21,01,20,9.20
2012,09,21,01,21,9.20
2012,09,21,01,22,9.20
2012,09,21,01,23,9.20
2012,09,21,01,24,9.10
2012,09,21,01,25,9.10
2012,09,21,01,26,9.10
2012,09,21,01,27,9.10
2012,09,21,01,28,9.10
2012,09,21,01,29,9.00
2012,09,21,01,30,9.00
2012,09,21,01,31,9.00
2012,09,21,01,32,8.90
2012,09,21,01,33,8.90
2012,09,21,01,34,8.90
2012,09,21,01,35,8.90
2012,09,21,01,36,8.90
2012,09,21,01,37,8.90
2012,09,21,01,38,8.90
2012,09,21,01,39,8.90
2012,09,21,01,40,8.90
2012,09,21,01,41,8.90
2012,09,21,01,42,8.90
2012,09,21,01,43,9.00
2012,09,21,01,44,9.10
2012,09,21,01,45,9.10
2012,09,21,01,46,9.10
2012,09,21,01,47,9.10
2012,09,21,01,48,9.10
2012,09,21,01,49,9.10
2012,09,21,01,50,9.10
2012,09,21,01,51,9.10
2012,09,21,01,52,9.00
2012,09,21,01,53,9.00
2012,09,21,01,54,8.90
2012,09,21,01,55,8.90
2012,09,21,01,56,8.90
2012,09,21,01,57,8.80
2012,09,21,01,58,8.80
2012,09,21,01,59,8.80
2012,09,21,02,00,8.80
2012,09,21,02,01,8.80
2012,09,21,02,02,8.70
2012,09,21,02,03,8.70
2012,09,21,02,04,8.70
2012,09,21,02,05,8.70
2012,09,21,02,06,8.70
2012,09,21,02,07,8.70
2012,09,21,02,08,8.70
2012,09,21,02,09,8.70
2012,09,21,02,10,8.70
2012,09,21,02,11,8.70
2012,09,21,02,12,8.70
2012,09,21,02,13,8.70
2012,09,21,02,14,8.70
2012,09,21,02,15,8.70
2012,09,21,02,16,8.70
2012,09,21,02,17,8.70
2012,09,21,02,18,8.70
2012,09,21,02,19,8.70
2012,09,21,02,20,8.70
2012,09,21,02,21,8.70
2012,09,21,02,22,8.70
2012,09,21,02,23,8.70
2012,09,21,02,24,8.70
2012,09,21,02,25,8.70
2012,09,21,02,26,8.70
2012,09,21,02,27,8.70
2012,09,21,02,28,8.70
2012,09,21,02,29,8.70
2012,09,21,02,30,8.70
2012,09,21,02,31,8.60
2012,09,21,02,32,8.60
2012,09,21,02,33,8.60
2012,09,21,02,34,8.60
2012,09,21,02,35,8.60
2012,09,21,02,36,8.60
2012,09,21,02,37,8.60
2012,09,21,02,38,8.60
2012,09,21,02,39,8.60
2012,09,21,02,40,8.60
2012,09,21,02,41,8.60
2012,09,21,02,42,8.60
2012,09,21,02,43,8.60
2012,09,21,02,44,8.70
2012,09,21,02,45,8.70
2012,09,21,02,46,8.70
2012,09,21,02,47,8.70
2012,09,21,02,48,8.70
2012,09,21,02,49,8.60
2012,09,21,02,50,8.60
2012,09,21,02,51,8.60
2012,09,21,02,52,8.60
2012,09,21,02,53,8.60
2012,09,21,02,54,8.50
2012,09,21,02,55,8.50
2012,09,21,02,56,8.50
2012,09,21,02,57,8.40
2012,09,21,02,58,8.40
2012,09,21,02,59,8.40
2012,09,21,03,00,8.40
2012,09,21,03,01,8.40
2012,09,21,03,02,8.40
2012,09,21,03,03,8.40
2012,09,21,03,04,8.30
2012,09,21,03,05,8.30
2012,09,21,03,06,8.30
2012,09,21,03,07,8.30
2012,09,21,03,08,8.30
2012,09,21,03,09,8.30
2012,09,21,03,10,8.30
2012,09,21,03,11,8.30
2012,09,21,03,12,8.30
2012,09,21,03,13,8.20
2012,09,21,03,14,8.20
2012,09,21,03,15,8.20
2012,09,21,03,16,8.20
2012,09,21,03,17,8.20
2012,09,21,03,18,8.20
2012,09,21,03,19,8.20
2012,09,21,03,20,8.20
2012,09,21,03,21,8.20
2012,09,21,03,22,8.10
2012,09,21,03,23,8.10
2012,09,21,03,24,8.10
2012,09,21,03,25,8.10
2012,09,21,03,26,8.10
2012,09,21,03,27,8.10
2012,09,21,03,28,8.10
2012,09,21,03,29,8.00
2012,09,21,03,30,8.00
2012,09,21,03,31,8.00
2012,09,21,03,32,8.00
2012,09,21,03,33,8.00
2012,09,21,03,34,8.00
2012,09,21,03,35,8.00
2012,09,21,03,36,8.00
2012,09,21,03,37,8.00
2012,09,21,03,38,8.00
2012,09,21,03,39,8.00
2012,09,21,03,40,8.00
2012,09,21,03,41,8.00
2012,09,21,03,42,8.00
2012,09,21,03,43,8.00
2012,09,21,03,44,8.00
2012,09,21,03,45,8.00
2012,09,21,03,46,8.00
2012,09,21,03,47,8.00
2012,09,21,03,48,8.00
2012,09,21,03,49,8.00
2012,09,21,03,50,8.00
2012,09,21,03,51,7.90
2012,09,21,03,52,7.90
2012,09,21,03,53,7.90
2012,09,21,03,54,7.90
2012,09,21,03,55,7.90
2012,09,21,03,56,7.90
2012,09,21,03,57,7.90
2012,09,21,03,58,7.90
2012,09,21,03,59,7.90
2012,09,21,04,00,8.00
2012,09,21,04,01,8.00
2012,09,21,04,02,8.00
2012,09,21,04,03,8.00
2012,09,21,04,04,8.00
2012,09,21,04,05,8.00
2012,09,21,04,06,8.00
2012,09,21,04,07,8.00
2012,09,21,04,08,8.00
2012,09,21,04,09,7.90
2012,09,21,04,10,7.90
2012,09,21,04,11,7.90
2012,09,21,04,12,7.90
2012,09,21,04,13,7.90
2012,09,21,04,14,7.90
2012,09,21,04,15,7.90
2012,09,21,04,16,7.80
2012,09,21,04,17,7.80
2012,09,21,04,18,7.80
2012,09,21,04,19,7.80
2012,09,21,04,20,7.80
2012,09,21,04,21,7.80
2012,09,21,04,22,7.80
2012,09,21,04,23,7.80
2012,09,21,04,24,7.80
2012,09,21,04,25,7.80
2012,09,21,04,26,7.80
2012,09,21,04,27,7.80
2012,09,21,04,28,7.80
2012,09,21,04,29,7.80
2012,09,21,04,30,7.80
2012,09,21,04,31,7.80
2012,09,21,04,32,7.80
2012,09,21,04,33,7.80
2012,09,21,04,34,7.80
2012,09,21,04,35,7.80
2012,09,21,04,36,7.70
2012,09,21,04,37,7.70
2012,09,21,04,38,7.70
2012,09,21,04,39,7.70
2012,09,21,04,40,7.70
2012,09,21,04,41,7.70
2012,09,21,04,42,7.70
2012,09,21,04,43,7.70
2012,09,21,04,44,7.70
2012,09,21,04,45,7.60
2012,09,21,04,46,7.60
2012,09,21,04,47,7.60
2012,09,21,04,48,7.60
2012,09,21,04,49,7.60
2012,09,21,04,50,7.50
2012,09,21,04,51,7.50
2012,09,21,04,52,7.50
2012,09,21,04,53,7.50
2012,09,21,04,54,7.40
2012,09,21,04,55,7.40
2012,09,21,04,56,7.40
2012,09,21,04,57,7.40
2012,09,21,04,58,7.40
2012,09,21,04,59,7.40
2012,09,21,05,00,7.50
2012,09,21,05,01,7.50
2012,09,21,05,02,7.50
2012,09,21,05,03,7.50
2012,09,21,05,04,7.50
2012,09,21,05,05,7.50
2012,09,21,05,06,7.50
2012,09,21,05,07,7.60
2012,09,21,05,08,7.60
2012,09,21,05,09,7.60
2012,09,21,05,10,7.60
2012,09,21,05,11,7.60
2012,09,21,05,12,7.60
2012,09,21,05,13,7.60
2012,09,21,05,14,7.60
2012,09,21,05,15,7.60
2012,09,21,05,16,7.60
2012,09,21,05,17,7.60
2012,09,21,05,18,7.50
2012,09,21,05,19,7.50
2012,09,21,05,20,7.50
2012,09,21,05,21,7.40
2012,09,21,05,22,7.40
2012,09,21,05,23,7.40
2012,09,21,05,24,7.40
2012,09,21,05,25,7.40
2012,09,21,05,26,7.40
2012,09,21,05,27,7.40
2012,09,21,05,28,7.40
2012,09,21,05,29,7.30
2012,09,21,05,30,7.30
2012,09,21,05,31,7.30
2012,09,21,05,32,7.30
2012,09,21,05,33,7.30
2012,09,21,05,34,7.30
2012,09,21,05,35,7.30
2012,09,21,05,36,7.30
2012,09,21,05,37,7.30
2012,09,21,05,38,7.30
2012,09,21,05,39,7.30
2012,09,21,05,40,7.30
2012,09,21,05,41,7.30
2012,09,21,05,42,7.40
2012,09,21,05,43,7.40
2012,09,21,05,44,7.40
2012,09,21,05,45,7.40
2012,09,21,05,46,7.40
2012,09,21,05,47,7.40
2012,09,21,05,48,7.40
2012,09,21,05,49,7.40
2012,09,21,05,50,7.40
2012,09,21,05,51,7.40
2012,09,21,05,52,7.40
2012,09,21,05,53,7.40
2012,09,21,05,54,7.40
2012,09,21,05,55,7.40
2012,09,21,05,56,7.40
2012,09,21,05,57,7.40
2012,09,21,05,58,7.40
2012,09,21,05,59,7.40
2012,09,21,06,00,7.40
2012,09,21,06,01,7.40
2012,09,21,06,02,7.40
2012,09,21,06,03,7.40
2012,09,21,06,04,7.40
2012,09,21,06,05,7.30
2012,09,21,06,06,7.40
2012,09,21,06,07,7.30
2012,09,21,06,08,7.40
2012,09,21,06,09,7.40
2012,09,21,06,10,7.40
2012,09,21,06,11,7.40
2012,09,21,06,12,7.40
2012,09,21,06,13,7.40
2012,09,21,06,14,7.40
2012,09,21,06,15,7.40
2012,09,21,06,16,7.40
2012,09,21,06,17,7.40
2012,09,21,06,18,7.40
2012,09,21,06,19,7.40
2012,09,21,06,20,7.40
2012,09,21,06,21,7.40
2012,09,21,06,22,7.40
2012,09,21,06,23,7.40
2012,09,21,06,24,7.40
2012,09,21,06,25,7.40
2012,09,21,06,26,7.40
2012,09,21,06,27,7.40
2012,09,21,06,28,7.40
2012,09,21,06,29,7.40
2012,09,21,06,30,7.40
2012,09,21,06,31,7.50
2012,09,21,06,32,7.50
2012,09,21,06,33,7.50
2012,09,21,06,34,7.50
2012,09,21,06,35,7.50
2012,09,21,06,36,7.50
2012,09,21,06,37,7.40
2012,09,21,06,38,7.40
2012,09,21,06,39,7.40
2012,09,21,06,40,7.40
2012,09,21,06,41,7.40
2012,09,21,06,42,7.40
2012,09,21,06,43,7.30
2012,09,21,06,44,7.40
2012,09,21,06,45,7.40
2012,09,21,06,46,7.40
2012,09,21,06,47,7.30
2012,09,21,06,48,7.30
2012,09,21,06,49,7.20
2012,09,21,06,50,7.20
2012,09,21,06,51,7.20
2012,09,21,06,52,7.20
2012,09,21,06,53,7.10
2012,09,21,06,54,7.10
2012,09,21,06,55,7.10
2012,09,21,06,56,7.10
2012,09,21,06,57,7.10
2012,09,21,06,58,7.10
2012,09,21,06,59,7.10
2012,09,21,07,00,7.10
2012,09,21,07,01,7.10
2012,09,21,07,02,7.10
2012,09,21,07,03,7.10
2012,09,21,07,04,7.20
2012,09,21,07,05,7.20
2012,09,21,07,06,7.20
2012,09,21,07,07,7.20
2012,09,21,07,08,7.20
2012,09,21,07,09,7.30
2012,09,21,07,10,7.30
2012,09,21,07,11,7.30
2012,09,21,07,12,7.30
2012,09,21,07,13,7.30
2012,09,21,07,14,7.30
2012,09,21,07,15,7.30
2012,09,21,07,16,7.30
2012,09,21,07,17,7.30
2012,09,21,07,18,7.30
2012,09,21,07,19,7.30
2012,09,21,07,20,7.20
2012,09,21,07,21,7.20
2012,09,21,07,22,7.20
2012,09,21,07,23,7.20
2012,09,21,07,24,7.20
2012,09,21,07,25,7.10
2012,09,21,07,26,7.10
2012,09,21,07,27,7.10
2012,09,21,07,28,7.10
2012,09,21,07,29,7.10
2012,09,21,07,30,7.10
2012,09,21,07,31,7.10
2012,09,21,07,32,7.10
2012,09,21,07,33,7.20
2012,09,21,07,34,7.20
2012,09,21,07,35,7.20
2012,09,21,07,36,7.20
2012,09,21,07,37,7.20
2012,09,21,07,38,7.20
2012,09,21,07,39,7.20
2012,09,21,07,40,7.20
2012,09,21,07,41,7.20
2012,09,21,07,42,7.20
2012,09,21,07,43,7.20
2012,09,21,07,44,7.20
2012,09,21,07,45,7.20
2012,09,21,07,46,7.20
2012,09,21,07,47,7.20
2012,09,21,07,48,7.20
2012,09,21,07,49,7.20
2012,09,21,07,50,7.20
2012,09,21,07,51,7.30
2012,09,21,07,52,7.30
2012,09,21,07,53,7.40
2012,09,21,07,54,7.40
2012,09,21,07,55,7.40
2012,09,21,07,56,7.50
2012,09,21,07,57,7.50
2012,09,21,07,58,7.60
2012,09,21,07,59,7.70
2012,09,21,08,00,7.80
2012,09,21,08,01,7.90
2012,09,21,08,02,8.10
2012,09,21,08,03,8.20
2012,09,21,08,04,8.30
2012,09,21,08,05,8.50
2012,09,21,08,06,8.80
2012,09,21,08,07,9.20
2012,09,21,08,08,9.50
2012,09,21,08,09,9.70
2012,09,21,08,10,9.90
2012,09,21,08,11,10.10
2012,09,21,08,12,10.20
2012,09,21,08,13,10.30
2012,09,21,08,14,10.30
2012,09,21,08,15,10.40
2012,09,21,08,16,10.50
2012,09,21,08,17,10.60
2012,09,21,08,18,10.60
2012,09,21,08,19,10.60
2012,09,21,08,20,10.70
2012,09,21,08,21,10.70
2012,09,21,08,22,10.70
2012,09,21,08,23,10.80
2012,09,21,08,24,10.80
2012,09,21,08,25,10.80
2012,09,21,08,26,10.80
2012,09,21,08,27,10.80
2012,09,21,08,28,10.80
2012,09,21,08,29,10.90
2012,09,21,08,30,10.90
2012,09,21,08,31,10.90
2012,09,21,08,32,10.90
2012,09,21,08,33,10.90
2012,09,21,08,34,10.90
2012,09,21,08,35,11.00
2012,09,21,08,36,11.00
2012,09,21,08,37,11.00
2012,09,21,08,38,11.00
2012,09,21,08,39,11.10
2012,09,21,08,40,11.10
2012,09,21,08,41,11.10
2012,09,21,08,42,11.10
2012,09,21,08,43,11.20
2012,09,21,08,44,11.20
2012,09,21,08,45,11.20
2012,09,21,08,46,11.20
2012,09,21,08,47,11.20
2012,09,21,08,48,11.30
2012,09,21,08,49,11.30
2012,09,21,08,50,11.30
2012,09,21,08,51,11.30
2012,09,21,08,52,11.30
2012,09,21,08,53,11.30
2012,09,21,08,54,11.40
2012,09,21,08,55,11.40
2012,09,21,08,56,11.40
2012,09,21,08,57,11.40
2012,09,21,08,58,11.40
2012,09,21,08,59,11.40
2012,09,21,09,00,11.40
2012,09,21,09,01,11.40
2012,09,21,09,02,11.40
2012,09,21,09,03,11.40
2012,09,21,09,04,11.50
2012,09,21,09,05,11.50
2012,09,21,09,06,11.50
2012,09,21,09,07,11.50
2012,09,21,09,08,11.50
2012,09,21,09,09,11.60
2012,09,21,09,10,11.60
2012,09,21,09,11,11.60
2012,09,21,09,12,11.60
2012,09,21,09,13,11.60
2012,09,21,09,14,11.60
2012,09,21,09,15,11.60
2012,09,21,09,16,11.70
2012,09,21,09,17,11.70
2012,09,21,09,18,11.70
2012,09,21,09,19,11.70
2012,09,21,09,20,11.70
2012,09,21,09,21,11.70
2012,09,21,09,22,11.70
2012,09,21,09,23,11.70
2012,09,21,09,24,11.70
2012,09,21,09,25,11.70
2012,09,21,09,26,11.70
2012,09,21,09,27,11.80
2012,09,21,09,28,11.80
2012,09,21,09,29,11.80
2012,09,21,09,30,11.80
2012,09,21,09,31,11.80
2012,09,21,09,32,11.80
2012,09,21,09,33,11.80
2012,09,21,09,34,11.90
2012,09,21,09,35,11.90
2012,09,21,09,36,11.90
2012,09,21,09,37,11.90
2012,09,21,09,38,11.90
2012,09,21,09,39,11.90
2012,09,21,09,40,11.90
2012,09,21,09,41,11.90
2012,09,21,09,42,11.90
2012,09,21,09,43,12.00
2012,09,21,09,44,12.00
2012,09,21,09,45,12.00
2012,09,21,09,46,12.10
2012,09,21,09,47,12.10
2012,09,21,09,48,12.10
2012,09,21,09,49,12.10
2012,09,21,09,50,12.10
2012,09,21,09,51,12.10
2012,09,21,09,52,12.10
2012,09,21,09,53,12.10
2012,09,21,09,54,12.10
2012,09,21,09,55,12.10
2012,09,21,09,56,12.20
2012,09,21,09,57,12.20
2012,09,21,09,58,12.20
2012,09,21,09,59,12.20
2012,09,21,10,00,12.20
2012,09,21,10,01,12.30
2012,09,21,10,02,12.30
2012,09,21,10,03,12.30
2012,09,21,10,04,12.30
2012,09,21,10,05,12.30
2012,09,21,10,06,12.30
2012,09,21,10,07,12.30
2012,09,21,10,08,12.30
2012,09,21,10,09,12.30
2012,09,21,10,10,12.30
2012,09,21,10,11,12.30
2012,09,21,10,12,12.30
2012,09,21,10,13,12.40
2012,09,21,10,14,12.40
2012,09,21,10,15,12.40
2012,09,21,10,16,12.40
2012,09,21,10,17,12.40
2012,09,21,10,18,12.50
2012,09,21,10,19,12.50
2012,09,21,10,20,12.60
2012,09,21,10,21,12.60
2012,09,21,10,22,12.60
2012,09,21,10,23,12.60
2012,09,21,10,24,12.70
2012,09,21,10,25,12.70
2012,09,21,10,26,12.70
2012,09,21,10,27,12.70
2012,09,21,10,28,12.70
2012,09,21,10,29,12.70
2012,09,21,10,30,12.80
2012,09,21,10,31,12.80
2012,09,21,10,32,12.80
2012,09,21,10,33,12.80
2012,09,21,10,34,12.90
2012,09,21,10,35,12.90
2012,09,21,10,36,12.90
2012,09,21,10,37,13.00
2012,09,21,10,38,13.00
2012,09,21,10,39,13.00
2012,09,21,10,40,13.00
2012,09,21,10,41,13.00
2012,09,21,10,42,13.00
2012,09,21,10,43,13.00
2012,09,21,10,44,13.00
2012,09,21,10,45,13.00
2012,09,21,10,46,13.10
2012,09,21,10,47,13.10
2012,09,21,10,48,13.10
2012,09,21,10,49,13.10
2012,09,21,10,50,13.10
2012,09,21,10,51,13.10
2012,09,21,10,52,13.20
2012,09,21,10,53,13.20
2012,09,21,10,54,13.20
2012,09,21,10,55,13.20
2012,09,21,10,56,13.20
2012,09,21,10,57,13.20
2012,09,21,10,58,13.20
2012,09,21,10,59,13.10
2012,09,21,11,00,13.10
2012,09,21,11,01,13.10
2012,09,21,11,02,13.10
2012,09,21,11,03,13.10
2012,09,21,11,04,13.10
2012,09,21,11,05,13.10
2012,09,21,11,06,13.10
2012,09,21,11,07,13.00
2012,09,21,11,08,13.10
2012,09,21,11,09,13.10
2012,09,21,11,10,13.00
2012,09,21,11,11,13.00
2012,09,21,11,12,13.00
2012,09,21,11,13,13.00
2012,09,21,11,14,13.00
2012,09,21,11,15,13.10
2012,09,21,11,16,13.10
2012,09,21,11,17,13.20
2012,09,21,11,18,13.20
2012,09,21,11,19,13.20
2012,09,21,11,20,13.20
2012,09,21,11,21,13.20
2012,09,21,11,22,13.20
2012,09,21,11,23,13.30
2012,09,21,11,24,13.30
2012,09,21,11,25,13.30
2012,09,21,11,26,13.30
2012,09,21,11,27,13.30
2012,09,21,11,28,13.30
2012,09,21,11,29,13.40
2012,09,21,11,30,13.40
2012,09,21,11,31,13.40
2012,09,21,11,32,13.40
2012,09,21,11,33,13.40
2012,09,21,11,34,13.50
2012,09,21,11,35,13.50
2012,09,21,11,36,13.50
2012,09,21,11,37,13.40
2012,09,21,11,38,13.40
2012,09,21,11,39,13.40
2012,09,21,11,40,13.40
2012,09,21,11,41,13.40
2012,09,21,11,42,13.50
2012,09,21,11,43,13.50
2012,09,21,11,44,13.50
2012,09,21,11,45,13.50
2012,09,21,11,46,13.60
2012,09,21,11,47,13.60
2012,09,21,11,48,13.60
2012,09,21,11,49,13.60
2012,09,21,11,50,13.60
2012,09,21,11,51,13.60
2012,09,21,11,52,13.70
2012,09,21,11,53,13.70
2012,09,21,11,54,13.70
2012,09,21,11,55,13.70
2012,09,21,11,56,13.80
2012,09,21,11,57,13.80
2012,09,21,11,58,13.80
2012,09,21,11,59,13.90
2012,09,21,12,00,13.90
2012,09,21,12,01,14.00
2012,09,21,12,02,14.00
2012,09,21,12,03,14.10
2012,09,21,12,04,14.10
2012,09,21,12,05,14.20
2012,09,21,12,06,14.20
2012,09,21,12,07,14.20
2012,09,21,12,08,14.30
2012,09,21,12,09,14.30
2012,09,21,12,10,14.30
2012,09,21,12,11,14.30
2012,09,21,12,12,14.30
2012,09,21,12,13,14.30
2012,09,21,12,14,14.20
2012,09,21,12,15,14.20
2012,09,21,12,16,14.30
2012,09,21,12,17,14.30
2012,09,21,12,18,14.30
2012,09,21,12,19,14.30
2012,09,21,12,20,14.30
2012,09,21,12,21,14.30
2012,09,21,12,22,14.30
2012,09,21,12,23,14.40
2012,09,21,12,24,14.50
2012,09,21,12,25,14.60
2012,09,21,12,26,14.60
2012,09,21,12,27,14.60
2012,09,21,12,28,14.60
2012,09,21,12,29,14.70
2012,09,21,12,30,14.70
2012,09,21,12,31,14.80
2012,09,21,12,32,14.80
2012,09,21,12,33,14.80
2012,09,21,12,34,14.80
2012,09,21,12,35,14.90
2012,09,21,12,36,15.00
2012,09,21,12,37,15.00
2012,09,21,12,38,15.00
2012,09,21,12,39,15.00
2012,09,21,12,40,15.00
2012,09,21,12,41,15.00
2012,09,21,12,42,15.00
2012,09,21,12,43,15.00
2012,09,21,12,44,15.00
2012,09,21,12,45,15.00
2012,09,21,12,46,15.00
2012,09,21,12,47,15.00
2012,09,21,12,48,15.00
2012,09,21,12,49,15.00
2012,09,21,12,50,15.00
2012,09,21,12,51,14.90
2012,09,21,12,52,14.80
2012,09,21,12,53,14.80
2012,09,21,12,54,14.80
2012,09,21,12,55,14.70
2012,09,21,12,56,14.70
2012,09,21,12,57,14.70
2012,09,21,12,58,14.60
2012,09,21,12,59,14.60
2012,09,21,13,00,14.60
2012,09,21,13,01,14.60
2012,09,21,13,02,14.60
2012,09,21,13,03,14.60
2012,09,21,13,04,14.60
2012,09,21,13,05,14.60
2012,09,21,13,06,14.50
2012,09,21,13,07,14.50
2012,09,21,13,08,14.50
2012,09,21,13,09,14.60
2012,09,21,13,10,14.60
2012,09,21,13,11,14.70
2012,09,21,13,12,14.70
2012,09,21,13,13,14.70
2012,09,21,13,14,14.70
2012,09,21,13,15,14.70
2012,09,21,13,16,14.70
2012,09,21,13,17,14.80
2012,09,21,13,18,14.70
2012,09,21,13,19,14.70
2012,09,21,13,20,14.70
2012,09,21,13,21,14.70
2012,09,21,13,22,14.70
2012,09,21,13,23,14.70
2012,09,21,13,24,14.70
2012,09,21,13,25,14.70
2012,09,21,13,26,14.70
2012,09,21,13,27,14.60
2012,09,21,13,28,14.60
2012,09,21,13,29,14.70
2012,09,21,13,30,14.80
2012,09,21,13,31,15.00
2012,09,21,13,32,15.00
2012,09,21,13,33,15.00
2012,09,21,13,34,15.00
2012,09,21,13,35,15.00
2012,09,21,13,36,15.00
2012,09,21,13,37,15.00
2012,09,21,13,38,15.00
2012,09,21,13,39,15.00
2012,09,21,13,40,15.00
2012,09,21,13,41,15.00
2012,09,21,13,42,15.10
2012,09,21,13,43,15.30
2012,09,21,13,44,15.40
2012,09,21,13,45,15.50
2012,09,21,13,46,15.50
2012,09,21,13,47,15.50
2012,09,21,13,48,15.40
2012,09,21,13,49,15.40
2012,09,21,13,50,15.30
2012,09,21,13,51,15.30
2012,09,21,13,52,15.30
2012,09,21,13,53,15.30
2012,09,21,13,54,15.30
2012,09,21,13,55,15.40
2012,09,21,13,56,15.40
2012,09,21,13,57,15.40
2012,09,21,13,58,15.40
2012,09,21,13,59,15.50
2012,09,21,14,00,15.70
2012,09,21,14,01,15.60
2012,09,21,14,02,15.50
2012,09,21,14,03,15.40
2012,09,21,14,04,15.20
2012,09,21,14,05,15.10
2012,09,21,14,06,15.00
2012,09,21,14,07,15.00
2012,09,21,14,08,15.10
2012,09,21,14,09,15.10
2012,09,21,14,10,15.10
2012,09,21,14,11,15.10
2012,09,21,14,12,15.00
2012,09,21,14,13,15.00
2012,09,21,14,14,15.00
2012,09,21,14,15,15.10
2012,09,21,14,16,15.00
2012,09,21,14,17,15.00
2012,09,21,14,18,15.10
2012,09,21,14,19,15.30
2012,09,21,14,20,15.40
2012,09,21,14,21,15.50
2012,09,21,14,22,15.50
2012,09,21,14,23,15.50
2012,09,21,14,24,15.60
2012,09,21,14,25,15.70
2012,09,21,14,26,15.80
2012,09,21,14,27,15.90
2012,09,21,14,28,16.00
2012,09,21,14,29,16.10
2012,09,21,14,30,16.20
2012,09,21,14,31,16.20
2012,09,21,14,32,16.30
2012,09,21,14,33,16.30
2012,09,21,14,34,16.30
2012,09,21,14,35,16.40
2012,09,21,14,36,16.50
2012,09,21,14,37,16.60
2012,09,21,14,38,16.60
2012,09,21,14,39,16.80
2012,09,21,14,40,16.80
2012,09,21,14,41,16.80
2012,09,21,14,42,16.80
2012,09,21,14,43,16.90
2012,09,21,14,44,17.00
2012,09,21,14,45,17.00
2012,09,21,14,46,17.10
2012,09,21,14,47,17.20
2012,09,21,14,48,17.20
2012,09,21,14,49,17.10
2012,09,21,14,50,17.10
2012,09,21,14,51,17.10
2012,09,21,14,52,17.20
2012,09,21,14,53,17.20
2012,09,21,14,54,17.20
2012,09,21,14,55,17.20
2012,09,21,14,56,17.10
2012,09,21,14,57,17.20
2012,09,21,14,58,17.20
2012,09,21,14,59,17.20
2012,09,21,15,00,17.20
2012,09,21,15,01,17.10
2012,09,21,15,02,17.10
2012,09,21,15,03,17.00
2012,09,21,15,04,17.00
2012,09,21,15,05,16.90
2012,09,21,15,06,17.00
2012,09,21,15,07,17.10
2012,09,21,15,08,17.20
2012,09,21,15,09,17.30
2012,09,21,15,10,17.30
2012,09,21,15,11,17.30
2012,09,21,15,12,17.30
2012,09,21,15,13,17.20
2012,09,21,15,14,17.20
2012,09,21,15,15,17.20
2012,09,21,15,16,17.30
2012,09,21,15,17,17.30
2012,09,21,15,18,17.40
2012,09,21,15,19,17.50
2012,09,21,15,20,17.50
2012,09,21,15,21,17.50
2012,09,21,15,22,17.60
2012,09,21,15,23,17.60
2012,09,21,15,24,17.70
2012,09,21,15,25,17.70
2012,09,21,15,26,17.80
2012,09,21,15,27,17.80
2012,09,21,15,28,17.80
2012,09,21,15,29,17.90
2012,09,21,15,30,17.90
2012,09,21,15,31,17.90
2012,09,21,15,32,18.00
2012,09,21,15,33,18.10
2012,09,21,15,34,18.00
2012,09,21,15,35,17.90
2012,09,21,15,36,17.90
2012,09,21,15,37,17.90
2012,09,21,15,38,17.90
2012,09,21,15,39,17.90
2012,09,21,15,40,17.90
2012,09,21,15,41,18.00
2012,09,21,15,42,18.10
2012,09,21,15,43,18.10
2012,09,21,15,44,18.10
2012,09,21,15,45,18.20
2012,09,21,15,46,18.20
2012,09,21,15,47,18.30
2012,09,21,15,48,18.30
2012,09,21,15,49,18.40
2012,09,21,15,50,18.30
2012,09,21,15,51,18.40
2012,09,21,15,52,18.40
2012,09,21,15,53,18.40
2012,09,21,15,54,18.50
2012,09,21,15,55,18.50
2012,09,21,15,56,18.60
2012,09,21,15,57,18.60
2012,09,21,15,58,18.60
2012,09,21,15,59,18.60
2012,09,21,16,00,18.70
2012,09,21,16,01,18.70
2012,09,21,16,02,18.70
2012,09,21,16,03,18.60
2012,09,21,16,04,18.60
2012,09,21,16,05,18.70
2012,09,21,16,06,18.60
2012,09,21,16,07,18.60
2012,09,21,16,08,18.60
2012,09,21,16,09,18.60
2012,09,21,16,10,18.60
2012,09,21,16,11,18.50
2012,09,21,16,12,18.40
2012,09,21,16,13,18.40
2012,09,21,16,14,18.40
2012,09,21,16,15,18.40
2012,09,21,16,16,18.50
2012,09,21,16,17,18.50
2012,09,21,16,18,18.60
2012,09,21,16,19,18.60
2012,09,21,16,20,18.60
2012,09,21,16,21,18.60
2012,09,21,16,22,18.60
2012,09,21,16,23,18.60
2012,09,21,16,24,18.70
2012,09,21,16,25,18.60
2012,09,21,16,26,18.60
2012,09,21,16,27,18.60
2012,09,21,16,28,18.60
2012,09,21,16,29,18.60
2012,09,21,16,30,18.50
2012,09,21,16,31,18.50
2012,09,21,16,32,18.40
2012,09,21,16,33,18.40
2012,09,21,16,34,18.40
2012,09,21,16,35,18.40
2012,09,21,16,36,18.30
2012,09,21,16,37,18.30
2012,09,21,16,38,18.30
2012,09,21,16,39,18.30
2012,09,21,16,40,18.30
2012,09,21,16,41,18.30
2012,09,21,16,42,18.30
2012,09,21,16,43,18.30
2012,09,21,16,44,18.40
2012,09,21,16,45,18.40
2012,09,21,16,46,18.40
2012,09,21,16,47,18.40
2012,09,21,16,48,18.40
2012,09,21,16,49,18.40
2012,09,21,16,50,18.30
2012,09,21,16,51,18.40
2012,09,21,16,52,18.40
2012,09,21,16,53,18.40
2012,09,21,16,54,18.40
2012,09,21,16,55,18.40
2012,09,21,16,56,18.40
2012,09,21,16,57,18.40
2012,09,21,16,58,18.40
2012,09,21,16,59,18.40
2012,09,21,17,00,18.40
2012,09,21,17,01,18.40
2012,09,21,17,02,18.40
2012,09,21,17,03,18.40
2012,09,21,17,04,18.50
2012,09,21,17,05,18.50
2012,09,21,17,06,18.50
2012,09,21,17,07,18.50
2012,09,21,17,08,18.60
2012,09,21,17,09,18.50
2012,09,21,17,10,18.60
2012,09,21,17,11,18.60
2012,09,21,17,12,18.50
2012,09,21,17,13,18.50
2012,09,21,17,14,18.50
2012,09,21,17,15,18.50
2012,09,21,17,16,18.60
2012,09,21,17,17,18.50
2012,09,21,17,18,18.50
2012,09,21,17,19,18.50
2012,09,21,17,20,18.40
2012,09,21,17,21,18.40
2012,09,21,17,22,18.40
2012,09,21,17,23,18.30
2012,09,21,17,24,18.30
2012,09,21,17,25,18.30
2012,09,21,17,26,18.30
2012,09,21,17,27,18.30
2012,09,21,17,28,18.30
2012,09,21,17,29,18.30
2012,09,21,17,30,18.30
2012,09,21,17,31,18.30
2012,09,21,17,32,18.30
2012,09,21,17,33,18.30
2012,09,21,17,34,18.30
2012,09,21,17,35,18.30
2012,09,21,17,36,18.40
2012,09,21,17,37,18.40
2012,09,21,17,38,18.40
2012,09,21,17,39,18.40
2012,09,21,17,40,18.40